| time (UTC) | temp F | wind direction | speed MPH | gust MPH | rain 1hr in | rain 24hr in | rain mn in | humidity % | barometer mb |
| 20260901175531 | 84 | 351 | 1.0 | 6.0 | 0.00 | 0.02 | 0.01 | 56 | 1018.8 |
| 20260901175032 | 84 | 214 | 0.0 | 4.0 | 0.00 | 0.02 | 0.01 | 58 | 1018.9 |
| 20260901174532 | 84 | 1 | 0.0 | 5.0 | 0.00 | 0.02 | 0.01 | 60 | 1018.9 |
| 20260901174031 | 83 | 86 | 0.0 | 6.0 | 0.00 | 0.02 | 0.01 | 60 | 1019.0 |
| 20260901173528 | 83 | 343 | 2.0 | 6.0 | 0.00 | 0.02 | 0.01 | 57 | 1019.1 |
| 20260901173027 | 83 | 284 | 0.0 | 6.0 | 0.00 | 0.02 | 0.01 | 60 | 1019.0 |
| 20260901172526 | 82 | 4 | 2.0 | 6.0 | 0.00 | 0.02 | 0.01 | 60 | 1019.2 |
| 20260901172026 | 82 | 345 | 1.0 | 4.0 | 0.00 | 0.02 | 0.01 | 61 | 1019.2 |
| 20260901171529 | 81 | 20 | 0.0 | 9.0 | 0.00 | 0.02 | 0.01 | 63 | 1019.3 |
| 20260901171025 | 81 | 337 | 4.0 | 10.0 | 0.00 | 0.02 | 0.01 | 62 | 1019.2 |
| 20260901170526 | 81 | 350 | 6.0 | 10.0 | 0.00 | 0.02 | 0.01 | 61 | 1019.3 |
| 20260901170025 | 81 | 53 | 4.0 | 10.0 | 0.00 | 0.02 | 0.01 | 60 | 1019.3 |
| 20260901165524 | 81 | 27 | 4.0 | 11.0 | 0.00 | 0.02 | 0.01 | 61 | 1019.4 |
| 20260901165026 | 81 | 318 | 4.0 | 11.0 | 0.00 | 0.02 | 0.01 | 60 | 1019.5 |
| 20260901164525 | 82 | 38 | 3.0 | 8.0 | 0.00 | 0.02 | 0.01 | 60 | 1019.5 |
| 20260901164024 | 83 | 340 | 1.0 | 7.0 | 0.00 | 0.02 | 0.01 | 59 | 1019.5 |
| 20260901163522 | 82 | 335 | 0.0 | 4.0 | 0.00 | 0.02 | 0.01 | 64 | 1019.6 |
| 20260901163022 | 81 | 340 | 1.0 | 5.0 | 0.00 | 0.02 | 0.01 | 65 | 1019.6 |
| 20260901162522 | 81 | 360 | 2.0 | 7.0 | 0.00 | 0.02 | 0.01 | 63 | 1019.6 |
| 20260901162021 | 80 | 332 | 0.0 | 7.0 | 0.00 | 0.02 | 0.01 | 66 | 1019.6 |
| 20260901161521 | 79 | 273 | 2.0 | 7.0 | 0.00 | 0.02 | 0.01 | 65 | 1019.7 |
| 20260901161020 | 79 | 22 | 3.0 | 9.0 | 0.00 | 0.02 | 0.01 | 64 | 1019.7 |
| 20260901160522 | 79 | 36 | 3.0 | 9.0 | 0.00 | 0.02 | 0.01 | 64 | 1019.8 |
| 20260901160023 | 80 | 342 | 3.0 | 9.0 | 0.00 | 0.02 | 0.01 | 65 | 1019.9 |
| 20260901155519 | 80 | 354 | 2.0 | 5.0 | 0.00 | 0.02 | 0.01 | 64 | 1019.8 |
| 20260901155020 | 80 | 335 | 2.0 | 6.0 | 0.00 | 0.02 | 0.01 | 67 | 1019.8 |
| 20260901154519 | 79 | 344 | 1.0 | 8.0 | 0.00 | 0.02 | 0.01 | 67 | 1019.8 |
| 20260901154022 | 80 | 6 | 2.0 | 8.0 | 0.00 | 0.02 | 0.01 | 65 | 1019.8 |
| 20260901153519 | 81 | 233 | 1.0 | 5.0 | 0.00 | 0.02 | 0.01 | 65 | 1019.8 |
| 20260901153021 | 81 | 305 | 2.0 | 5.0 | 0.00 | 0.02 | 0.01 | 66 | 1019.8 |
| 20260901152517 | 81 | 344 | 0.0 | 2.0 | 0.00 | 0.02 | 0.01 | 70 | 1019.8 |
| 20260901152019 | 80 | 255 | 0.0 | 3.0 | 0.00 | 0.02 | 0.01 | 69 | 1019.8 |
| 20260901151518 | 79 | 353 | 1.0 | 3.0 | 0.00 | 0.02 | 0.01 | 70 | 1019.9 |
| 20260901151016 | 79 | 346 | 0.0 | 3.0 | 0.00 | 0.02 | 0.01 | 71 | 1019.9 |
| 20260901150517 | 80 | 39 | 0.0 | 3.0 | 0.00 | 0.02 | 0.01 | 70 | 1019.9 |
| 20260901150016 | 81 | 352 | 1.0 | 5.0 | 0.00 | 0.02 | 0.01 | 68 | 1019.9 |
| 20260901145516 | 81 | 10 | 0.0 | 5.0 | 0.00 | 0.02 | 0.01 | 70 | 1020.0 |
| 20260901145016 | 82 | 18 | 1.0 | 4.0 | 0.00 | 0.02 | 0.01 | 69 | 1020.1 |
| 20260901144516 | 81 | 105 | 0.0 | 5.0 | 0.00 | 0.02 | 0.01 | 71 | 1020.1 |
| 20260901144015 | 81 | 347 | 1.0 | 5.0 | 0.00 | 0.02 | 0.01 | 70 | 1020.3 |
| 20260901143515 | 81 | 360 | 0.0 | 1.0 | 0.00 | 0.02 | 0.01 | 69 | 1020.1 |
| 20260901143015 | 81 | 359 | 0.0 | 3.0 | 0.00 | 0.02 | 0.01 | 69 | 1020.2 |
| 20260901142515 | 82 | 359 | 0.0 | 2.0 | 0.00 | 0.02 | 0.01 | 68 | 1020.2 |
| 20260901142114 | 83 | 214 | 0.0 | 0.0 | 0.00 | 0.02 | 0.01 | 67 | 1020.2 |
| 20260901141512 | 82 | 214 | 0.0 | 0.0 | 0.00 | 0.02 | 0.01 | 70 | 1020.2 |
| 20260901141012 | 82 | 214 | 0.0 | 0.0 | 0.00 | 0.02 | 0.01 | 68 | 1020.2 |
| 20260901140510 | 81 | 214 | 0.0 | 0.0 | 0.00 | 0.02 | 0.01 | 71 | 1020.0 |
| 20260901140013 | 80 | 214 | 0.0 | 0.0 | 0.00 | 0.02 | 0.01 | 72 | 1020.0 |
| 20260901135511 | 79 | 214 | 0.0 | 0.0 | 0.00 | 0.03 | 0.01 | 73 | 1020.1 |
| 20260901135006 | 78 | 214 | 0.0 | 0.0 | 0.00 | 0.03 | 0.01 | 77 | 1020.1 |
| 20260901134507 | 77 | 214 | 0.0 | 0.0 | 0.00 | 0.03 | 0.01 | 80 | 1020.2 |
| 20260901134005 | 75 | 214 | 0.0 | 0.0 | 0.00 | 0.03 | 0.01 | 84 | 1020.3 |
| 20260901133502 | 74 | 214 | 0.0 | 0.0 | 0.00 | 0.03 | 0.01 | 87 | 1020.3 |
| 20260901133104 | 73 | 214 | 0.0 | 0.0 | 0.00 | 0.03 | 0.01 | 88 | 1020.3 |
| 20260901132559 | 73 | 214 | 0.0 | 0.0 | 0.00 | 0.03 | 0.01 | 90 | 1020.3 |
| 20260901132057 | 72 | 214 | 0.0 | 0.0 | 0.00 | 0.03 | 0.01 | 93 | 1020.2 |
| 20260901131603 | 70 | 214 | 0.0 | 0.0 | 0.00 | 0.03 | 0.01 | 95 | 1020.3 |
| 20260901131054 | 70 | 214 | 0.0 | 0.0 | 0.00 | 0.03 | 0.01 | 96 | 1020.3 |
| 20260901130556 | 69 | 214 | 0.0 | 0.0 | 0.00 | 0.03 | 0.01 | 96 | 1020.3 |
| 20260901130052 | 68 | 214 | 0.0 | 0.0 | 0.00 | 0.03 | 0.01 | 96 | 1020.3 |
| 20260901125552 | 68 | 214 | 0.0 | 0.0 | 0.00 | 0.03 | 0.01 | 96 | 1020.4 |
| 20260901125050 | 68 | 214 | 0.0 | 0.0 | 0.00 | 0.03 | 0.01 | 96 | 1020.4 |
| 20260901124549 | 67 | 214 | 0.0 | 0.0 | 0.00 | 0.03 | 0.01 | 96 | 1020.4 |
| 20260901124047 | 66 | 214 | 0.0 | 0.0 | 0.00 | 0.03 | 0.01 | 96 | 1020.4 |
| 20260901123547 | 66 | 214 | 0.0 | 0.0 | 0.00 | 0.03 | 0.01 | 96 | 1020.4 |
| 20260901123047 | 64 | 214 | 0.0 | 0.0 | 0.00 | 0.03 | 0.01 | 96 | 1020.4 |
| 20260901122545 | 64 | 214 | 0.0 | 0.0 | 0.00 | 0.03 | 0.01 | 96 | 1020.3 |
| 20260901122044 | 62 | 214 | 0.0 | 0.0 | 0.00 | 0.03 | 0.01 | 96 | 1020.3 |
| 20260901121547 | 61 | 214 | 0.0 | 0.0 | 0.00 | 0.03 | 0.01 | 96 | 1020.3 |
| 20260901121042 | 61 | 214 | 0.0 | 0.0 | 0.00 | 0.03 | 0.01 | 96 | 1020.3 |
| 20260901120541 | 61 | 214 | 0.0 | 0.0 | 0.00 | 0.03 | 0.01 | 96 | 1020.3 |
| 20260901120045 | 60 | 214 | 0.0 | 0.0 | 0.00 | 0.03 | 0.01 | 96 | 1020.1 |
| 20260901115541 | 60 | 214 | 0.0 | 0.0 | 0.00 | 0.03 | 0.01 | 96 | 1020.1 |
| 20260901115041 | 60 | 214 | 0.0 | 0.0 | 0.00 | 0.03 | 0.01 | 96 | 1020.1 |
| 20260901114544 | 60 | 214 | 0.0 | 0.0 | 0.00 | 0.03 | 0.01 | 96 | 1020.0 |
| 20260901114042 | 60 | 214 | 0.0 | 0.0 | 0.00 | 0.03 | 0.01 | 96 | 1019.9 |
| 20260901113544 | 60 | 214 | 0.0 | 0.0 | 0.00 | 0.03 | 0.01 | 96 | 1019.8 |
| 20260901113043 | 60 | 214 | 0.0 | 0.0 | 0.00 | 0.03 | 0.01 | 96 | 1019.8 |
| 20260901112540 | 59 | 214 | 0.0 | 0.0 | 0.00 | 0.03 | 0.01 | 96 | 1019.7 |
| 20260901112043 | 59 | 214 | 0.0 | 0.0 | 0.00 | 0.03 | 0.01 | 96 | 1019.6 |
| 20260901111539 | 59 | 214 | 0.0 | 0.0 | 0.00 | 0.03 | 0.01 | 96 | 1019.5 |
| 20260901111038 | 59 | 214 | 0.0 | 0.0 | 0.00 | 0.03 | 0.01 | 96 | 1019.5 |
| 20260901110541 | 59 | 214 | 0.0 | 0.0 | 0.00 | 0.03 | 0.01 | 96 | 1019.5 |
| 20260901110037 | 60 | 214 | 0.0 | 0.0 | 0.00 | 0.03 | 0.01 | 96 | 1019.4 |
| 20260901105538 | 60 | 214 | 0.0 | 0.0 | 0.00 | 0.03 | 0.01 | 96 | 1019.4 |
| 20260901105041 | 60 | 214 | 0.0 | 0.0 | 0.00 | 0.03 | 0.01 | 96 | 1019.3 |
| 20260901104537 | 60 | 214 | 0.0 | 0.0 | 0.00 | 0.03 | 0.01 | 96 | 1019.3 |
| 20260901104037 | 60 | 214 | 0.0 | 0.0 | 0.00 | 0.03 | 0.01 | 96 | 1019.3 |
| 20260901103537 | 60 | 214 | 0.0 | 0.0 | 0.00 | 0.03 | 0.01 | 96 | 1019.3 |
| 20260901103040 | 60 | 214 | 0.0 | 0.0 | 0.00 | 0.03 | 0.01 | 96 | 1019.2 |
| 20260901102536 | 60 | 214 | 0.0 | 0.0 | 0.00 | 0.03 | 0.01 | 96 | 1019.1 |
| 20260901102036 | 60 | 214 | 0.0 | 0.0 | 0.00 | 0.03 | 0.01 | 96 | 1019.0 |
| 20260901101536 | 60 | 214 | 0.0 | 0.0 | 0.00 | 0.03 | 0.01 | 96 | 1019.0 |
| 20260901101036 | 60 | 214 | 0.0 | 0.0 | 0.00 | 0.03 | 0.01 | 96 | 1019.0 |
| 20260901100535 | 60 | 214 | 0.0 | 0.0 | 0.00 | 0.03 | 0.01 | 96 | 1019.1 |
| 20260901100035 | 60 | 214 | 0.0 | 0.0 | 0.00 | 0.03 | 0.01 | 96 | 1019.0 |
| 20260901095535 | 60 | 214 | 0.0 | 0.0 | 0.00 | 0.03 | 0.01 | 96 | 1019.1 |
| 20260901095035 | 60 | 214 | 0.0 | 0.0 | 0.00 | 0.03 | 0.01 | 96 | 1019.0 |
| 20260901094535 | 60 | 214 | 0.0 | 0.0 | 0.00 | 0.03 | 0.01 | 96 | 1019.0 |
| 20260901094036 | 60 | 214 | 0.0 | 0.0 | 0.00 | 0.03 | 0.01 | 96 | 1019.0 |
| 20260901093536 | 60 | 214 | 0.0 | 0.0 | 0.00 | 0.03 | 0.01 | 96 | 1019.1 |
| 20260901093034 | 61 | 214 | 0.0 | 0.0 | 0.00 | 0.03 | 0.01 | 96 | 1019.1 |
| 20260901092532 | 61 | 214 | 0.0 | 0.0 | 0.00 | 0.03 | 0.01 | 96 | 1019.0 |
| 20260901092032 | 61 | 214 | 0.0 | 0.0 | 0.00 | 0.03 | 0.01 | 96 | 1019.0 |
| 20260901091532 | 61 | 214 | 0.0 | 0.0 | 0.00 | 0.03 | 0.01 | 96 | 1019.0 |
| 20260901091035 | 61 | 214 | 0.0 | 0.0 | 0.01 | 0.03 | 0.01 | 96 | 1019.1 |
| 20260901090531 | 61 | 214 | 0.0 | 0.0 | 0.01 | 0.03 | 0.01 | 96 | 1019.0 |
| 20260901090031 | 61 | 214 | 0.0 | 0.0 | 0.01 | 0.03 | 0.01 | 96 | 1019.0 |
| 20260901085531 | 61 | 214 | 0.0 | 0.0 | 0.01 | 0.03 | 0.01 | 96 | 1019.1 |
| 20260901085031 | 61 | 214 | 0.0 | 0.0 | 0.01 | 0.03 | 0.01 | 96 | 1019.0 |
| 20260901084531 | 61 | 214 | 0.0 | 0.0 | 0.01 | 0.03 | 0.01 | 96 | 1019.0 |
| 20260901084033 | 61 | 214 | 0.0 | 0.0 | 0.01 | 0.03 | 0.01 | 96 | 1019.0 |
| 20260901083530 | 61 | 214 | 0.0 | 0.0 | 0.01 | 0.03 | 0.01 | 96 | 1019.0 |
| 20260901083029 | 61 | 214 | 0.0 | 0.0 | 0.01 | 0.03 | 0.01 | 96 | 1019.0 |
| 20260901082528 | 61 | 214 | 0.0 | 0.0 | 0.01 | 0.03 | 0.01 | 96 | 1019.0 |
| 20260901082028 | 61 | 214 | 0.0 | 0.0 | 0.01 | 0.03 | 0.01 | 96 | 1018.9 |
| 20260901081528 | 61 | 214 | 0.0 | 0.0 | 0.01 | 0.03 | 0.01 | 96 | 1019.0 |
| 20260901081027 | 61 | 214 | 0.0 | 0.0 | 0.00 | 0.02 | 0.00 | 96 | 1019.0 |
| 20260901080526 | 61 | 214 | 0.0 | 0.0 | 0.00 | 0.02 | 0.00 | 96 | 1019.0 |
| 20260901080026 | 61 | 214 | 0.0 | 0.0 | 0.00 | 0.02 | 0.00 | 96 | 1019.1 |
| 20260901075525 | 62 | 214 | 0.0 | 0.0 | 0.00 | 0.02 | 0.00 | 96 | 1019.2 |
| 20260901075024 | 62 | 214 | 0.0 | 0.0 | 0.00 | 0.02 | 0.00 | 96 | 1019.2 |
| 20260901074525 | 62 | 214 | 0.0 | 0.0 | 0.00 | 0.02 | 0.00 | 96 | 1019.2 |
| 20260901074024 | 62 | 214 | 0.0 | 0.0 | 0.00 | 0.02 | 0.00 | 96 | 1019.2 |
| 20260901073523 | 62 | 214 | 0.0 | 0.0 | 0.00 | 0.02 | 0.00 | 96 | 1019.2 |
| 20260901073024 | 62 | 214 | 0.0 | 0.0 | 0.00 | 0.02 | 0.00 | 96 | 1019.2 |
| 20260901072526 | 62 | 214 | 0.0 | 0.0 | 0.00 | 0.02 | 0.00 | 96 | 1019.4 |
| 20260901072024 | 62 | 214 | 0.0 | 0.0 | 0.00 | 0.02 | 0.00 | 96 | 1019.4 |
| 20260901071523 | 62 | 214 | 0.0 | 0.0 | 0.00 | 0.02 | 0.00 | 96 | 1019.4 |
| 20260901071022 | 62 | 214 | 0.0 | 0.0 | 0.00 | 0.02 | 0.00 | 96 | 1019.4 |
| 20260901070520 | 62 | 214 | 0.0 | 0.0 | 0.00 | 0.02 | 0.00 | 96 | 1019.4 |
| 20260901070025 | 62 | 214 | 0.0 | 0.0 | 0.00 | 0.02 | 0.00 | 96 | 1019.5 |
| 20260901065520 | 62 | 214 | 0.0 | 0.0 | 0.00 | 0.02 | 0.00 | 96 | 1019.5 |
| 20260901065025 | 62 | 214 | 0.0 | 0.0 | 0.00 | 0.02 | 0.00 | 96 | 1019.6 |
| 20260901064533 | 62 | 214 | 0.0 | 0.0 | 0.00 | 0.02 | 0.00 | 96 | 1019.6 |
| 20260901064019 | 62 | 214 | 0.0 | 0.0 | 0.00 | 0.02 | 0.00 | 96 | 1019.7 |
| 20260901063518 | 62 | 214 | 0.0 | 0.0 | 0.00 | 0.02 | 0.00 | 96 | 1019.8 |
| 20260901063018 | 62 | 214 | 0.0 | 0.0 | 0.00 | 0.02 | 0.00 | 96 | 1019.8 |
| 20260901062519 | 63 | 214 | 0.0 | 0.0 | 0.00 | 0.02 | 0.00 | 96 | 1019.8 |
| 20260901062020 | 62 | 214 | 0.0 | 0.0 | 0.00 | 0.02 | 0.00 | 96 | 1019.8 |
| 20260901061517 | 62 | 214 | 0.0 | 0.0 | 0.00 | 0.02 | 0.00 | 96 | 1019.8 |
| 20260901061016 | 63 | 214 | 0.0 | 0.0 | 0.00 | 0.02 | 0.00 | 96 | 1019.9 |
| 20260901060516 | 63 | 214 | 0.0 | 0.0 | 0.00 | 0.02 | 0.00 | 96 | 1019.8 |
| 20260901060016 | 63 | 214 | 0.0 | 0.0 | 0.00 | 0.02 | 0.00 | 96 | 1019.9 |
| 20260901055515 | 63 | 214 | 0.0 | 0.0 | 0.00 | 0.02 | 0.00 | 96 | 1019.8 |
| 20260901055016 | 63 | 214 | 0.0 | 0.0 | 0.00 | 0.02 | 0.00 | 96 | 1019.9 |
| 20260901054514 | 63 | 214 | 0.0 | 0.0 | 0.00 | 0.02 | 0.00 | 96 | 1019.9 |
| 20260901054014 | 63 | 214 | 0.0 | 0.0 | 0.00 | 0.02 | 0.00 | 96 | 1020.0 |
| 20260901053514 | 63 | 214 | 0.0 | 0.0 | 0.00 | 0.02 | 0.00 | 96 | 1020.0 |
| 20260901053013 | 63 | 214 | 0.0 | 0.0 | 0.00 | 0.02 | 0.00 | 96 | 1020.0 |
| 20260901052512 | 63 | 214 | 0.0 | 0.0 | 0.00 | 0.02 | 0.00 | 96 | 1020.0 |
| 20260901052012 | 64 | 214 | 0.0 | 0.0 | 0.00 | 0.02 | 0.00 | 96 | 1019.9 |
| 20260901051512 | 64 | 214 | 0.0 | 0.0 | 0.00 | 0.02 | 0.00 | 96 | 1019.9 |
| 20260901051012 | 64 | 214 | 0.0 | 0.0 | 0.00 | 0.02 | 0.00 | 96 | 1020.0 |
| 20260901050511 | 64 | 214 | 0.0 | 0.0 | 0.00 | 0.02 | 0.00 | 96 | 1019.9 |
| 20260901050010 | 64 | 214 | 0.0 | 0.0 | 0.00 | 0.02 | 0.00 | 96 | 1019.9 |
| 20260901045509 | 64 | 214 | 0.0 | 0.0 | 0.00 | 0.02 | 0.00 | 96 | 1020.0 |
| 20260901045011 | 64 | 214 | 0.0 | 0.0 | 0.00 | 0.02 | 0.00 | 96 | 1020.0 |
| 20260901044509 | 64 | 214 | 0.0 | 0.0 | 0.00 | 0.02 | 0.00 | 96 | 1020.0 |
| 20260901044009 | 64 | 214 | 0.0 | 0.0 | 0.00 | 0.02 | 0.00 | 96 | 1019.9 |
| 20260901043509 | 64 | 214 | 0.0 | 0.0 | 0.00 | 0.02 | 0.00 | 96 | 1019.9 |
| 20260901043009 | 64 | 214 | 0.0 | 0.0 | 0.00 | 0.02 | 0.00 | 96 | 1019.9 |
| 20260901042507 | 64 | 214 | 0.0 | 0.0 | 0.00 | 0.02 | 0.00 | 96 | 1019.9 |
| 20260901042006 | 64 | 214 | 0.0 | 0.0 | 0.00 | 0.02 | 0.00 | 96 | 1019.7 |
| 20260901041506 | 64 | 214 | 0.0 | 0.0 | 0.00 | 0.02 | 0.00 | 96 | 1019.7 |
| 20260901041005 | 64 | 214 | 0.0 | 0.0 | 0.00 | 0.02 | 0.00 | 96 | 1019.7 |
| 20260901040504 | 64 | 214 | 0.0 | 0.0 | 0.00 | 0.02 | 0.00 | 96 | 1019.8 |
| 20260901040110 | 64 | 214 | 0.0 | 0.0 | 0.00 | 0.02 | 0.00 | 96 | 1019.7 |
| 20260901035503 | 65 | 214 | 0.0 | 0.0 | 0.00 | 0.02 | 0.02 | 96 | 1019.7 |
| 20260901035002 | 65 | 214 | 0.0 | 0.0 | 0.00 | 0.02 | 0.02 | 96 | 1019.8 |
| 20260901034502 | 65 | 214 | 0.0 | 0.0 | 0.00 | 0.02 | 0.02 | 96 | 1019.7 |
| 20260901034001 | 65 | 214 | 0.0 | 0.0 | 0.00 | 0.02 | 0.02 | 96 | 1019.7 |
| 20260901033502 | 65 | 214 | 0.0 | 0.0 | 0.00 | 0.02 | 0.02 | 96 | 1019.7 |
| 20260901033002 | 65 | 214 | 0.0 | 0.0 | 0.00 | 0.02 | 0.02 | 96 | 1019.8 |
| 20260901032503 | 65 | 214 | 0.0 | 0.0 | 0.00 | 0.02 | 0.02 | 96 | 1019.7 |
| 20260901032004 | 65 | 214 | 0.0 | 0.0 | 0.00 | 0.02 | 0.02 | 96 | 1019.8 |
| 20260901031503 | 65 | 214 | 0.0 | 0.0 | 0.00 | 0.02 | 0.02 | 96 | 1019.7 |
| 20260901031100 | 65 | 214 | 0.0 | 0.0 | 0.00 | 0.02 | 0.02 | 96 | 1019.7 |
| 20260901030500 | 65 | 214 | 0.0 | 0.0 | 0.00 | 0.02 | 0.02 | 96 | 1019.7 |
| 20260901030001 | 65 | 214 | 0.0 | 0.0 | 0.00 | 0.02 | 0.02 | 96 | 1019.7 |
| 20260901025601 | 65 | 214 | 0.0 | 0.0 | 0.00 | 0.02 | 0.02 | 96 | 1019.8 |
| 20260901025104 | 66 | 214 | 0.0 | 0.0 | 0.00 | 0.02 | 0.02 | 96 | 1019.7 |
| 20260901024600 | 66 | 214 | 0.0 | 0.0 | 0.00 | 0.02 | 0.02 | 96 | 1019.8 |
| 20260901024100 | 66 | 145 | 0.0 | 0.0 | 0.00 | 0.02 | 0.02 | 96 | 1019.7 |
| 20260901023600 | 66 | 145 | 0.0 | 0.0 | 0.00 | 0.02 | 0.02 | 96 | 1019.6 |
| 20260901023100 | 66 | 145 | 0.0 | 0.0 | 0.00 | 0.02 | 0.02 | 96 | 1019.7 |
| 20260901022600 | 66 | 145 | 0.0 | 0.0 | 0.00 | 0.02 | 0.02 | 96 | 1019.6 |
| 20260901022059 | 66 | 145 | 0.0 | 0.0 | 0.00 | 0.02 | 0.02 | 96 | 1019.6 |
| 20260901021559 | 66 | 145 | 0.0 | 0.0 | 0.00 | 0.02 | 0.02 | 96 | 1019.6 |
| 20260901021059 | 67 | 145 | 0.0 | 0.0 | 0.00 | 0.02 | 0.02 | 96 | 1019.6 |
| 20260901020557 | 67 | 145 | 0.0 | 0.0 | 0.00 | 0.02 | 0.02 | 96 | 1019.6 |
| 20260901020059 | 67 | 145 | 0.0 | 0.0 | 0.00 | 0.02 | 0.02 | 96 | 1019.6 |
| 20260901015557 | 67 | 145 | 0.0 | 0.0 | 0.00 | 0.02 | 0.02 | 96 | 1019.6 |
| 20260901015058 | 67 | 145 | 0.0 | 0.0 | 0.00 | 0.02 | 0.02 | 96 | 1019.5 |
| 20260901014557 | 67 | 145 | 0.0 | 0.0 | 0.00 | 0.02 | 0.02 | 95 | 1019.5 |
| 20260901014056 | 67 | 145 | 0.0 | 0.0 | 0.00 | 0.02 | 0.02 | 95 | 1019.4 |
| 20260901013557 | 67 | 145 | 0.0 | 0.0 | 0.00 | 0.02 | 0.02 | 95 | 1019.4 |
| 20260901013101 | 67 | 145 | 0.0 | 0.0 | 0.00 | 0.02 | 0.02 | 95 | 1019.4 |
| 20260901012555 | 67 | 145 | 0.0 | 0.0 | 0.00 | 0.02 | 0.02 | 95 | 1019.3 |
| 20260901012055 | 67 | 145 | 0.0 | 0.0 | 0.00 | 0.02 | 0.02 | 95 | 1019.3 |
| 20260901011557 | 67 | 145 | 0.0 | 0.0 | 0.00 | 0.02 | 0.02 | 95 | 1019.3 |
| 20260901011056 | 67 | 145 | 0.0 | 0.0 | 0.00 | 0.02 | 0.02 | 95 | 1019.3 |
| 20260901010555 | 67 | 145 | 0.0 | 0.0 | 0.00 | 0.02 | 0.02 | 95 | 1019.3 |
| 20260901010058 | 67 | 145 | 0.0 | 0.0 | 0.00 | 0.02 | 0.02 | 95 | 1019.2 |
| 20260901005554 | 67 | 145 | 0.0 | 0.0 | 0.00 | 0.02 | 0.02 | 95 | 1019.1 |
| 20260901005054 | 67 | 145 | 0.0 | 0.0 | 0.00 | 0.02 | 0.02 | 95 | 1019.0 |
| 20260901004555 | 68 | 145 | 0.0 | 1.0 | 0.00 | 0.02 | 0.02 | 95 | 1018.9 |
| 20260901004053 | 68 | 145 | 0.0 | 1.0 | 0.00 | 0.02 | 0.02 | 95 | 1019.0 |
| 20260901003553 | 68 | 145 | 0.0 | 1.0 | 0.00 | 0.02 | 0.02 | 95 | 1018.9 |
| 20260901003053 | 68 | 145 | 0.0 | 1.0 | 0.00 | 0.02 | 0.02 | 94 | 1018.9 |
| 20260901002553 | 68 | 114 | 0.0 | 1.0 | 0.00 | 0.02 | 0.02 | 94 | 1018.8 |
| 20260901002057 | 68 | 114 | 0.0 | 1.0 | 0.00 | 0.02 | 0.02 | 94 | 1018.8 |
| 20260901001555 | 68 | 114 | 0.0 | 1.0 | 0.00 | 0.02 | 0.02 | 94 | 1018.7 |
| 20260901001052 | 69 | 143 | 0.0 | 2.0 | 0.00 | 0.02 | 0.02 | 94 | 1018.7 |
| 20260901000551 | 69 | 141 | 0.0 | 1.0 | 0.00 | 0.02 | 0.02 | 93 | 1018.7 |
| 20260901000059 | 69 | 121 | 0.0 | 0.0 | 0.00 | 0.02 | 0.02 | 93 | 1018.6 |
| 20260831235552 | 69 | 121 | 0.0 | 0.0 | 0.00 | 0.02 | 0.02 | 93 | 1018.6 |
| 20260831235052 | 70 | 122 | 0.0 | 1.0 | 0.00 | 0.02 | 0.02 | 93 | 1018.6 |
| 20260831234551 | 70 | 121 | 0.0 | 1.0 | 0.01 | 0.02 | 0.02 | 93 | 1018.6 |
| 20260831234053 | 70 | 204 | 0.0 | 0.0 | 0.01 | 0.02 | 0.02 | 93 | 1018.7 |
| 20260831233550 | 70 | 204 | 0.0 | 0.0 | 0.01 | 0.02 | 0.02 | 93 | 1018.7 |
| 20260831233051 | 70 | 204 | 0.0 | 0.0 | 0.01 | 0.02 | 0.02 | 92 | 1018.8 |
| 20260831232553 | 70 | 204 | 0.0 | 0.0 | 0.01 | 0.02 | 0.02 | 92 | 1018.8 |
| 20260831232051 | 71 | 203 | 0.0 | 0.0 | 0.01 | 0.02 | 0.02 | 92 | 1018.8 |
| 20260831231551 | 71 | 203 | 0.0 | 0.0 | 0.01 | 0.02 | 0.02 | 91 | 1018.9 |
| 20260831231050 | 71 | 204 | 0.0 | 0.0 | 0.01 | 0.02 | 0.02 | 91 | 1018.9 |
| 20260831230550 | 71 | 224 | 0.0 | 0.0 | 0.01 | 0.02 | 0.02 | 91 | 1018.9 |
| 20260831230050 | 71 | 238 | 0.0 | 2.0 | 0.01 | 0.02 | 0.02 | 88 | 1018.9 |
| 20260831225548 | 72 | 238 | 0.0 | 2.0 | 0.01 | 0.02 | 0.02 | 89 | 1019.0 |
| 20260831225049 | 72 | 214 | 0.0 | 1.0 | 0.01 | 0.02 | 0.02 | 89 | 1019.0 |
| 20260831224549 | 72 | 344 | 0.0 | 3.0 | 0.00 | 0.01 | 0.01 | 86 | 1019.0 |
| 20260831224049 | 73 | 81 | 0.0 | 6.0 | 0.00 | 0.01 | 0.01 | 85 | 1019.0 |
| 20260831223550 | 75 | 8 | 3.0 | 11.0 | 0.00 | 0.01 | 0.01 | 83 | 1019.1 |
| 20260831223049 | 77 | 358 | 4.0 | 11.0 | 0.00 | 0.01 | 0.01 | 80 | 1019.0 |
| 20260831222549 | 78 | 219 | 0.0 | 1.0 | 0.00 | 0.01 | 0.01 | 76 | 1018.9 |
| 20260831222048 | 79 | 219 | 0.0 | 1.0 | 0.00 | 0.01 | 0.01 | 72 | 1018.9 |
| 20260831221548 | 80 | 219 | 0.0 | 1.0 | 0.00 | 0.01 | 0.01 | 71 | 1018.8 |
| 20260831221048 | 80 | 219 | 0.0 | 4.0 | 0.00 | 0.01 | 0.01 | 71 | 1018.6 |
| 20260831220547 | 80 | 214 | 0.0 | 5.0 | 0.00 | 0.01 | 0.01 | 73 | 1018.5 |
| 20260831220046 | 80 | 180 | 1.0 | 5.0 | 0.00 | 0.01 | 0.01 | 71 | 1018.7 |
| 20260831215546 | 80 | 200 | 0.0 | 3.0 | 0.00 | 0.01 | 0.01 | 73 | 1018.7 |
| 20260831215046 | 80 | 162 | 1.0 | 5.0 | 0.00 | 0.01 | 0.01 | 74 | 1018.6 |
| 20260831214546 | 80 | 174 | 1.0 | 5.0 | 0.00 | 0.01 | 0.01 | 73 | 1018.7 |
| 20260831214048 | 80 | 189 | 1.0 | 5.0 | 0.00 | 0.01 | 0.01 | 73 | 1018.7 |
| 20260831213545 | 80 | 185 | 1.0 | 2.0 | 0.00 | 0.01 | 0.01 | 70 | 1018.7 |
| 20260831213045 | 79 | 200 | 0.0 | 2.0 | 0.00 | 0.01 | 0.01 | 70 | 1018.8 |
| 20260831212545 | 79 | 187 | 0.0 | 3.0 | 0.00 | 0.01 | 0.01 | 71 | 1018.9 |
| 20260831212045 | 80 | 203 | 1.0 | 4.0 | 0.00 | 0.01 | 0.01 | 70 | 1018.8 |
| 20260831211551 | 81 | 156 | 1.0 | 3.0 | 0.00 | 0.01 | 0.01 | 69 | 1018.8 |
| 20260831211044 | 81 | 215 | 1.0 | 3.0 | 0.00 | 0.01 | 0.01 | 67 | 1018.7 |
| 20260831210542 | 81 | 181 | 0.0 | 2.0 | 0.00 | 0.01 | 0.01 | 66 | 1018.7 |
| 20260831210043 | 81 | 161 | 0.0 | 2.0 | 0.00 | 0.01 | 0.01 | 66 | 1018.7 |
| 20260831205546 | 81 | 175 | 0.0 | 3.0 | 0.00 | 0.01 | 0.01 | 68 | 1018.7 |
| 20260831205043 | 80 | 173 | 1.0 | 3.0 | 0.00 | 0.01 | 0.01 | 72 | 1018.8 |
| 20260831204542 | 80 | 226 | 1.0 | 4.0 | 0.00 | 0.01 | 0.01 | 71 | 1018.7 |
| 20260831204042 | 80 | 195 | 0.0 | 4.0 | 0.00 | 0.01 | 0.01 | 70 | 1018.7 |
| 20260831203541 | 80 | 226 | 1.0 | 4.0 | 0.00 | 0.01 | 0.01 | 69 | 1018.8 |
| 20260831203041 | 80 | 159 | 1.0 | 3.0 | 0.00 | 0.01 | 0.01 | 69 | 1018.8 |
| 20260831202540 | 80 | 214 | 0.0 | 3.0 | 0.00 | 0.01 | 0.01 | 70 | 1018.9 |
| 20260831202040 | 80 | 160 | 1.0 | 3.0 | 0.00 | 0.01 | 0.01 | 71 | 1019.0 |
| 20260831201540 | 80 | 168 | 1.0 | 3.0 | 0.00 | 0.01 | 0.01 | 71 | 1019.1 |
| 20260831201041 | 79 | 151 | 1.0 | 4.0 | 0.00 | 0.01 | 0.01 | 72 | 1019.2 |
| 20260831200537 | 78 | 197 | 0.0 | 4.0 | 0.00 | 0.01 | 0.01 | 73 | 1019.1 |
| 20260831200038 | 77 | 205 | 0.0 | 3.0 | 0.00 | 0.01 | 0.01 | 76 | 1019.2 |
| 20260831195537 | 76 | 171 | 0.0 | 4.0 | 0.00 | 0.01 | 0.01 | 77 | 1019.3 |
| 20260831195039 | 76 | 190 | 1.0 | 3.0 | 0.00 | 0.01 | 0.01 | 79 | 1019.4 |
| 20260831194549 | 76 | 166 | 0.0 | 7.0 | 0.00 | 0.01 | 0.01 | 79 | 1019.4 |
| 20260831194038 | 76 | 190 | 0.0 | 8.0 | 0.00 | 0.01 | 0.01 | 79 | 1019.4 |
| 20260831193536 | 77 | 245 | 2.0 | 8.0 | 0.00 | 0.01 | 0.01 | 77 | 1019.5 |
| 20260831193035 | 78 | 142 | 1.0 | 5.0 | 0.00 | 0.01 | 0.01 | 77 | 1019.6 |
| 20260831192535 | 78 | 120 | 1.0 | 6.0 | 0.00 | 0.01 | 0.01 | 75 | 1019.6 |
| 20260831192034 | 79 | 190 | 0.0 | 8.0 | 0.00 | 0.01 | 0.01 | 73 | 1019.7 |
| 20260831191536 | 80 | 149 | 0.0 | 8.0 | 0.00 | 0.01 | 0.01 | 70 | 1019.7 |
| 20260831191039 | 81 | 192 | 1.0 | 6.0 | 0.00 | 0.01 | 0.01 | 69 | 1019.7 |
| 20260831190534 | 81 | 124 | 0.0 | 2.0 | 0.00 | 0.01 | 0.01 | 66 | 1019.7 |
| 20260831190034 | 82 | 178 | 0.0 | 2.0 | 0.00 | 0.01 | 0.01 | 65 | 1019.8 |
| 20260831185534 | 82 | 191 | 0.0 | 3.0 | 0.00 | 0.01 | 0.01 | 66 | 1019.8 |
| 20260831185034 | 82 | 240 | 1.0 | 3.0 | 0.00 | 0.01 | 0.01 | 66 | 1019.8 |
| 20260831184533 | 81 | 166 | 0.0 | 1.0 | 0.00 | 0.01 | 0.01 | 67 | 1019.7 |
| 20260831184032 | 80 | 153 | 0.0 | 1.0 | 0.00 | 0.01 | 0.01 | 68 | 1019.8 |
| 20260831183532 | 80 | 144 | 0.0 | 2.0 | 0.00 | 0.01 | 0.01 | 67 | 1019.8 |
| 20260831183032 | 80 | 127 | 0.0 | 3.0 | 0.00 | 0.01 | 0.01 | 67 | 1019.8 |
| 20260831182532 | 79 | 198 | 0.0 | 3.0 | 0.00 | 0.01 | 0.01 | 66 | 1019.7 |
| 20260831182035 | 79 | 105 | 0.0 | 3.0 | 0.00 | 0.01 | 0.01 | 66 | 1019.7 |
| 20260831181532 | 80 | 150 | 0.0 | 5.0 | 0.00 | 0.01 | 0.01 | 65 | 1019.7 |
| 20260831181031 | 81 | 51 | 0.0 | 6.0 | 0.00 | 0.01 | 0.01 | 62 | 1019.7 |
| 20260831180530 | 82 | 338 | 0.0 | 5.0 | 0.00 | 0.01 | 0.01 | 59 | 1019.7 |
| 20260831180030 | 82 | 53 | 1.0 | 5.0 | 0.00 | 0.01 | 0.01 | 60 | 1019.8 |